Погода в Докшицах

Беларусь     54°53′31″N   27°45′54″E
темп.,
°C
ветер,
м/с
пор.,
м/с
влажн.,
%
обл.,
%
осадки,
мм/ч
давл.,
гПа
погр.,
м
8 марта, пн
пн800:00−4з613778 0.0 1003704
03:00−4зсз7138321 0.0 1004783
06:00−5сз5990100 0.2 1005634
09:00−6ссз6984100 0.3 1007736
12:00−5ссз677584 0.1 10101030
15:00−4ссз687491 0.3 10111108
18:00−5ссз6873100 0.1 10131079
21:00−6с488299 0.1 1015725
9 марта, вт
вт900:00−7с368790 0.0 1017346
03:00−9ссз249145 0.0 1019113
06:00−9ссз37930 0.0 1020231
09:00−9ссз36840 0.0 1021346
12:00−6ссз34640 0.0 1022700
15:00−4зсз34554 0.0 10221041
18:00−4з246717 0.0 1021227
21:00−5зюз357654 0.0 1022107
10 марта, ср
ср1000:00−4зюз3877100 0.0 1023209
03:00−5зюз4877100 0.0 1023222
06:00−5зюз3782100 0.0 1023271
09:00−4зюз4781100 0.0 1024367
12:00−2з3468100 0.0 1025592
15:00−1зюз1158100 0.0 10261007
18:00−3в4579100 0.1 1025293
21:00−6вюв588889 0.1 1027294
11 марта, чт
чт1100:00−7юв588876 0.0 1028308
03:00−8ююв478981 0.0 1028267
06:00−9ююв479069 0.0 1027252
09:00−8ююв588971 0.0 1027278
12:00−4ю697024 0.0 1026568
15:00−1ю7105712 0.0 10231143
18:00−2ююв7126492 0.0 10201128
21:00−3ююв9167096 0.0 1018957
12 марта, пт
пт1200:00−3ююв101765100 0.0 10141032
03:00−3ююв111789100 0.2 1010906
06:00−3ююв111892100 1.3 1005930
09:00−2ю101794100 4.4 1003854
12:00+1ююз6999100 1.4 1002347
15:00+3юз59100100 1.8 1002457
18:00+1зюз5998100 3.3 1004321
21:00+1з51198100 4.9 1006491